Location: Krzepice
(50.9709°N, 18.7290°E)
Time: 08:38:13
(UTC+00:00)

Daily predictions for brighter satellites

Satellite Brightness Start Highest point End
(mag) Time Altitude Azimuth Time Altitude Azimuth Time Altitude Azimuth
NOSS 3-4 (C) 4.2 18:53:18 10° NW 18:59:37 55° NE 19:07:04 10° ESE
DEBRIS 3.1 18:58:08 10° WSW 19:00:46 54° SSE 19:07:22 10° E
Meteor 2-12 Rocket 4.5 18:56:12 10° N 19:02:19 79° E 19:08:25 10° SSE
Cosmos 2237 4.4 18:56:35 10° NNW 19:02:22 82° WSW 19:08:06 10° SSE
Cosmos 2082 Rocket 2.2 18:57:55 10° SSW 19:03:36 73° ESE 19:09:18 10° NNE
Cosmos 2173 Rocket 4.5 18:58:00 10° SSW 19:04:08 67° WNW 19:10:24 10° N
Cosmos 2016 Rocket 4.0 18:58:13 10° S 19:04:27 79° E 19:10:39 10° NNE
Cosmos 2369 4.0 19:01:11 10° NNW 19:06:53 69° WSW 19:12:33 10° SSE
ATLAS 2AS CENTAUR R/B 4.3 19:02:23 10° W 19:08:49 40° NNW 19:15:10 10° NE
CZ-4C R/B 2.9 19:08:38 10° WSW 19:12:59 52° NW 19:18:39 10° NE
IRS-1A Rocket 4.5 19:09:58 10° SSE 19:15:50 88° WSW 19:21:48 10° NNW
CZ-4B R/B 3.7 19:15:32 10° SE 19:18:28 28° ENE 19:21:29 10° N
Cosmos 2151 3.4 19:14:56 10° N 19:18:53 44° ENE 19:22:49 10° SSE
USA 306 2.6 19:17:15 10° W 19:20:26 50° NNW 19:22:36 10° ENE
Cosmos 2098 Rocket 4.5 19:17:16 10° SE 19:20:43 21° E 19:23:50 10° NE
Ariane Rocket 3.8 19:19:15 10° SE 19:23:50 37° ENE 19:28:29 10° N
Cosmos 1626 Rocket 3.6 19:19:29 10° N 19:23:51 68° ENE 19:28:13 10° SSE
Cosmos 2278 3.9 19:19:27 10° NNW 19:25:10 64° NE 19:30:44 10° SE
Cosmos 1782 3.3 19:25:18 10° SSW 19:28:44 53° WNW 19:32:13 10° N
Spot 2 Rocket 3.5 19:24:01 10° SSE 19:29:02 88° WSW 19:34:07 10° NNW
SL-16 R/B 2.3 19:23:34 10° NNW 19:29:17 82° ENE 19:34:53 10° SSE
Cosmos 1607 4.3 19:24:49 10° SW 19:30:59 73° NW 19:37:18 10° NE
ERS-1 Rocket 4.1 19:27:35 10° S 19:32:20 43° W 19:37:07 10° NNW
SPOT 3 Rocket 3.8 19:28:54 10° SE 19:33:54 55° ENE 19:38:55 10° N
MOS 1-B 4.4 19:31:07 10° SSE 19:36:55 85° WSW 19:42:46 10° NNW
Cosmos 1980 Rocket 4.3 19:38:38 10° NW 19:42:52 22° W 19:47:04 10° SSW
Cosmos 2061 Rocket 4.1 19:37:37 10° S 19:43:52 86° W 19:50:14 10° N
CZ-4 R/B 3.8 19:42:36 10° SW 19:44:55 16° W 19:47:16 10° NW
USA 186 1.8 19:42:50 10° S 19:45:31 60° W 19:48:16 10° NNW
Cosmos 2228 3.9 19:42:34 10° SSW 19:46:33 49° WNW 19:50:33 10° N
USA 290 3.8 19:45:44 16° SE 19:46:48 18° ESE 19:49:03 10° ENE
SL-08 R/B 3.6 19:42:18 10° NNE 19:47:07 74° WNW 19:51:50 10° SSW
COSMOS 2406 3.2 19:41:46 10° SSW 19:47:30 77° ESE 19:53:15 10° NNE
CZ-4B R/B 3.6 19:43:25 13° SE 19:47:36 58° ENE 19:52:24 10° N
Cosmos 1933 3.3 19:45:18 10° S 19:49:01 58° E 19:52:47 10° NNE
ISS -3.6 19:47:58 10° W 19:51:19 77° N 19:54:40 10° E
Cosmos 1461 2.4 19:47:55 10° SSW 19:51:36 70° SE 19:55:16 10° NE
NOSS 3 (A) 4.0 19:49:22 10° NW 19:51:36 86° SW 19:53:22 20° SE
Cosmos 1992 Rocket 4.2 19:46:33 10° SSW 19:51:45 76° WNW 19:56:59 10° NNE
Terra 3.5 19:48:44 10° SSW 19:52:52 30° W 19:57:02 10° NNW
Meteor 1-20 Rocket 4.3 19:48:01 10° NNW 19:53:39 83° W 19:59:20 10° S
Okean 1 4.5 19:51:56 16° SE 19:53:40 22° E 19:56:30 10° NE
Okean O Rocket 2.3 19:53:08 10° S 19:57:17 50° W 20:01:30 10° NNW
Cosmos 1777 Rocket 4.0 19:53:49 10° NNW 19:59:05 74° ENE 20:03:12 16° SSE
Cosmos 2333 Rocket 2.4 19:53:53 10° NNW 19:59:34 70° WSW 20:04:29 14° SSE
Cosmos 1544 Rocket 3.7 20:00:42 10° SSW 20:05:01 74° W 20:09:21 10° N
NOSS 3-3 (A) 4.2 20:00:35 10° WSW 20:05:53 67° NW 20:12:22 10° NE
Cosmos 1437 Rocket 2.6 20:03:57 10° SSW 20:07:30 77° WNW 20:11:08 10° N
Cosmos 1503 Rocket 4.1 20:03:51 10° NNW 20:09:03 69° ENE 20:12:49 18° SE
Cosmos 2360 Rocket 2.2 20:03:56 10° NNW 20:09:40 87° ENE 20:13:59 18° SSE
Okean 1-7 Rocket 3.7 20:05:20 10° N 20:09:48 66° ENE 20:13:00 19° SSE
Cosmos 1891 Rocket 4.5 20:11:03 10° S 20:17:09 84° W 20:23:13 10° N
Cosmos 2034 Rocket 4.4 20:13:54 17° SSE 20:18:36 46° E 20:24:36 10° NNE
Okean-O 4.1 20:15:40 10° SSW 20:19:36 32° W 20:23:33 10° NNW
Cosmos 2333 4.2 20:13:53 10° NNW 20:19:38 87° ENE 20:23:47 20° SSE
Cosmos 1486 Rocket 4.2 20:14:44 10° NNW 20:19:59 71° WSW 20:23:55 18° S
CZ-2C R/B 1.8 20:21:09 30° SSE 20:22:21 85° ENE 20:25:08 10° NNW
Cosmos 2219 Rocket 2.3 20:16:44 10° NNW 20:22:25 72° ENE 20:26:24 20° SE
Cosmos 1766 4.2 20:20:08 10° NNE 20:22:52 25° ENE 20:24:01 20° ESE
Cosmos 1354 Rocket 4.2 20:18:47 10° NNW 20:24:01 65° ENE 20:27:29 21° SE
Nadezhda 4 Rocket 3.9 20:24:37 10° N 20:30:47 90° SE 20:35:27 18° S
IRS-1C Rocket 4.3 20:27:08 17° S 20:31:17 67° WSW 20:36:34 10° NNW
Cosmos 540 Rocket 3.8 20:28:07 19° S 20:31:29 46° ESE 20:36:23 10° NE
Cosmos 1825 Rocket 3.5 20:29:48 10° N 20:34:10 87° W 20:36:52 23° S
Cosmos 1805 3.5 20:31:33 10° NNW 20:34:42 47° W 20:36:34 21° SSW
Cosmos 220 Rocket 4.4 20:33:48 10° SW 20:37:49 59° WNW 20:41:54 10° NNE
Meteor 2-10 4.4 20:32:55 10° NNW 20:38:40 74° W 20:42:50 19° S
Aureole 1 Rocket 4.2 20:34:15 10° NNW 20:39:54 62° ENE 20:44:26 21° SE
Cosmos 1953 Rocket 3.6 20:36:36 10° N 20:40:56 67° ENE 20:43:09 28° SSE
Helios 1A 3.8 20:37:56 10° NE 20:41:24 29° E 20:42:24 26° SE
Cosmos 2322 Rocket 2.7 20:36:33 10° NW 20:42:04 54° WSW 20:45:49 20° S
RESURS DK-1 3.6 20:39:34 10° NNW 20:43:10 31° NE 20:45:33 17° ESE
USA 306 2.7 20:45:23 10° WNW 20:47:33 29° N 20:47:38 29° N
Cosmos 2082 Rocket 4.4 20:43:20 10° W 20:48:13 28° NW 20:53:08 10° NNE
Cosmos 2195 Rocket 4.4 20:42:46 10° N 20:49:02 86° E 20:53:05 23° S
TSX-5 4.1 20:46:59 10° NNW 20:49:58 41° NE 20:51:15 27° ESE
NOSS 3-4 (A) 4.3 20:43:30 10° NW 20:50:00 51° SW 20:55:06 21° S
NOSS 3-4 (C) 4.3 20:44:07 10° NW 20:50:40 52° SW 20:55:45 21° S
Cosmos 1707 2.4 20:52:04 40° ESE 20:52:10 40° E 20:54:52 10° NNE
CZ-4B R/B 4.4 20:49:58 13° SW 20:52:13 24° W 20:55:06 10° NW
Cosmos 2026 Rocket 4.0 20:46:39 10° N 20:53:05 79° E 20:57:08 24° SSE
Geosat 4.5 20:48:48 10° NE 20:53:31 40° ESE 20:55:36 27° SSE
Cosmos 2058 Rocket 3.4 20:53:53 30° SSE 20:55:34 47° E 20:59:44 10° NNE
Cosmos 2098 Rocket 3.9 20:53:24 11° SSW 20:57:50 48° WNW 21:01:45 10° N
Cosmos 1076 Rocket 3.6 20:53:57 10° NNW 20:58:11 67° W 21:00:20 27° S
Cosmos 44 3.5 20:54:26 10° NW 20:59:53 86° SW 21:02:45 28° SE
Cosmos 2237 Rocket 3.7 20:55:33 10° NNW 21:00:29 29° NE 21:05:22 10° ESE
CZ-4C R/B 4.5 20:58:10 10° WNW 21:02:31 26° N 21:07:54 10° NE
Ariane Rocket 4.1 20:59:02 15° SSW 21:02:42 37° W 21:07:25 10° NNW
SL-16 R/B 4.1 21:08:45 10° NW 21:12:40 19° W 21:16:35 10° SW
Meteor 1-26 Rocket 4.1 21:09:41 24° S 21:13:07 83° E 21:18:52 10° NNE
COSMOS 2428 2.9 21:08:40 10° NNW 21:14:21 64° ENE 21:17:37 26° SE
Cosmos 1763 Rocket 3.6 21:10:53 13° SSW 21:15:34 76° WNW 21:20:52 10° NNE
Cosmos 1470 3.0 21:12:25 10° N 21:15:34 39° ENE 21:16:07 36° ESE
ARIANE 5 R/B 3.5 21:15:19 26° ESE 21:17:16 40° ENE 21:21:27 10° N
ALOS 2 3.7 21:17:23 24° ESE 21:19:19 35° ENE 21:23:18 10° N
USA 290 3.9 21:18:06 12° WSW 21:20:42 31° WNW 21:23:34 10° N
Cosmos 1898 Rocket 3.6 21:16:41 10° NNW 21:21:53 69° ENE 21:24:23 31° SE
Helios 1B rocket 1.9 21:24:22 51° SSE 21:25:08 80° ENE 21:28:40 10° NNW
Meteor 2-2 Rocket 4.2 21:22:13 26° S 21:25:34 87° E 21:31:24 10° NNE
ISS -3.9 21:24:48 10° WNW 21:28:07 64° SSW 21:28:15 63° S
Cosmos 1726 Rocket 4.5 21:25:49 18° SW 21:28:28 40° WNW 21:32:18 10° N
BREEZE-M DEB (TANK) 3.7 21:27:52 10° W 21:28:12 13° W 21:28:12 13° W
Cosmos 1536 3.0 21:32:25 10° NNW 21:36:02 55° W 21:36:59 41° SSW
CSL-04 DEB 4.0 21:36:01 54° SSE 21:36:46 88° WSW 21:40:26 10° NNW
Cosmos-2242 3.4 21:37:47 28° SW 21:39:44 54° WNW 21:43:47 10° N
Cosmos 1092 Rocket 4.3 21:35:49 10° NNW 21:41:52 58° W 21:45:20 26° SSW
Cosmos 2333 Rocket 4.5 21:40:23 10° WNW 21:42:48 13° W 21:45:13 10° WSW
NOSS 0 Rocket 3.9 21:37:20 10° NNW 21:43:33 80° ENE 21:46:51 29° SE
KORONAS-FOTON 3.7 21:43:53 48° SW 21:44:35 62° WNW 21:47:58 10° N
Cosmos 2297 Rocket 3.1 21:46:14 28° SE 21:47:36 32° ESE 21:52:32 10° NE
Cosmos 841 Rocket 3.6 21:47:27 37° S 21:49:17 59° ESE 21:54:27 10° NNE
Meteor 1-14 Rocket 4.1 21:46:43 10° NNW 21:52:18 85° W 21:54:40 36° S
Cosmos 2360 Rocket 4.1 21:49:09 10° WNW 21:52:53 18° W 21:55:44 13° SW
Cosmos 1842 3.0 21:56:49 54° WSW 21:57:06 57° WNW 22:00:14 10° N
Cosmos 2322 3.8 21:52:26 10° NW 21:58:04 62° WSW 22:00:18 36° S
Cosmos 1975 2.5 21:55:00 10° NNW 21:58:41 80° W 21:59:14 62° S
Spot 4 3.8 21:57:15 41° SSE 21:58:56 88° WSW 22:03:46 10° NNW
ACS3 Solar Sail 3.7 21:56:27 10° NE 21:59:44 15° E 22:02:41 11° ESE
Meteor 2-6 Rocket 4.4 21:58:28 28° SSW 22:01:45 76° WNW 22:07:43 10° N
Cosmos 1812 Rocket 3.6 22:02:59 46° SSE 22:04:05 65° E 22:08:29 10° NNE
Cosmos 2221 2.3 22:03:18 51° S 22:04:20 86° E 22:08:33 10° N
Cosmos 2219 Rocket 3.8 22:01:29 10° NW 22:05:48 23° WSW 22:08:05 18° SW
Cosmos 1271 Rocket 2.8 22:06:21 48° WSW 22:06:53 55° WNW 22:10:13 10° N
MetOp-A 4.3 22:05:00 31° SE 22:07:00 52° ENE 22:11:29 10° N
Helios 1A 4.4 22:12:36 10° N 22:16:03 30° WNW 22:18:07 18° WSW
ARGOS Delta rocket 4.0 22:11:14 10° NNE 22:16:26 84° ESE 22:18:32 39° S
Cosmos 2279 Rocket 4.3 22:16:39 27° SSW 22:20:09 64° WNW 22:26:24 10° N
RESURS DK-1 3.1 22:16:54 10° NW 22:20:32 34° WSW 22:20:45 34° WSW
Meteor 2-20 4.5 22:19:22 35° SSE 22:21:59 68° E 22:28:03 10° NNE
NOSS 8 (F) 4.3 22:19:26 10° NW 22:22:20 67° NE 22:22:21 67° NE
Cosmos 858 Rocket 4.4 22:21:06 10° NNW 22:26:15 71° WSW 22:27:57 42° S
Meteor 1-19 Rocket 4.4 22:24:37 33° SSW 22:27:23 77° WNW 22:33:22 10° N
Cosmos 1937 Rocket 3.9 22:23:44 10° NNW 22:28:40 49° WSW 22:30:09 37° SSW
CZ-2C R/B 4.2 22:28:03 10° N 22:32:24 52° WNW 22:34:15 31° SW
SL-16 R/B 3.4 22:28:20 10° NNW 22:33:41 39° NE 22:38:56 10° ESE
GP-B 3.0 22:30:42 10° N 22:35:06 86° W 22:36:11 51° S
CZ-2C R/B 2.6 22:39:09 36° SSE 22:41:21 76° ENE 22:46:34 10° NNW
Lacrosse 4 Rocket 1.6 22:42:44 46° SE 22:42:54 46° ESE 22:46:50 10° NE
Cosmos 2237 Rocket 2.2 22:39:22 10° NNW 22:45:01 69° WSW 22:47:09 38° S
SeaSat 1 3.2 22:42:55 19° ESE 22:46:17 50° NE 22:51:02 10° NNW
USA 234 3.3 22:39:57 10° ENE 22:46:22 57° SE 22:49:36 30° SSW
Cosmos 2266 Rocket 4.2 22:41:59 10° NNW 22:47:52 57° W 22:50:26 33° SSW
Cosmos 1980 3.8 22:43:41 10° NW 22:49:15 60° WSW 22:51:12 39° S
CZ-4C R/B 4.5 22:47:20 10° NW 22:52:33 30° NNE 22:59:01 10° ENE
Intercosmos 24 3.8 22:49:20 10° NNW 22:53:07 58° W 22:53:29 54° SW
ARIANE 5 R/B 3.9 22:52:41 25° WSW 22:53:40 28° W 22:57:31 10° NW
ATLAS 2AS CENTAUR R/B 3.9 22:47:41 10° NW 22:54:06 41° NNE 23:00:29 10° E
ALOS 2 3.7 22:54:46 28° WSW 22:55:40 31° W 22:59:36 10° NNW
Cosmos 2227 Rocket 2.7 22:55:49 34° SSE 22:57:41 46° ESE 23:03:04 10° NE
COSMOS 2428 3.9 22:53:30 10° NW 22:58:09 26° WSW 22:59:35 24° SW
Meteor 2-4 Rocket 3.6 23:00:13 39° S 23:02:20 85° E 23:07:55 10° NNE
BlueWalker 3 2.5 23:05:22 38° ESE 23:05:22 38° ESE 23:07:56 10° ENE
Cosmos 2263 Rocket 3.1 23:03:56 28° SE 23:05:45 34° ESE 23:10:45 10° NE
CZ-2C R/B 3.3 23:01:00 10° NNE 23:06:47 79° WNW 23:09:26 34° SSW
Cosmos 1125 Rocket 4.1 23:03:53 10° NNW 23:09:05 53° ENE 23:12:45 19° SE
Cosmos 1766 Rocket 3.8 23:05:02 10° NNW 23:09:14 55° W 23:10:08 45° SW
Cosmos 1758 3.8 23:06:50 10° N 23:10:21 45° ENE 23:11:14 37° ESE
Cosmos 1238 Rocket 3.2 23:14:04 44° SW 23:15:04 58° WNW 23:19:27 10° N
Cosmos 1655 Rocket 4.1 23:15:16 10° NNW 23:21:25 63° W 23:24:15 33° SSW
SWARM C 4.3 23:19:41 10° N 23:22:58 87° E 23:23:05 81° SSE
SWARM A 4.1 23:19:49 10° N 23:23:04 73° E 23:23:15 70° ESE
Cosmos 1814 Rocket 3.9 23:21:58 39° SSW 23:23:57 84° ESE 23:29:14 10° NNE
Alouette 2 Rocket 4.1 23:23:33 10° NNW 23:27:14 45° W 23:28:18 38° SW
Meteor 2-11 Rocket 4.4 23:22:11 10° NNW 23:28:19 76° W 23:31:13 33° S
Meteor 1-27 Rocket 4.3 23:25:49 27° SW 23:28:43 49° WNW 23:34:17 10° N
Meteor 2-10 Rocket 3.8 23:24:22 10° NNW 23:29:51 64° W 23:32:13 35° SSW
Cosmos 1340 Rocket 3.3 23:27:36 10° N 23:31:22 51° ENE 23:32:47 32° SE
Cosmos 2297 Rocket 2.7 23:27:59 23° WSW 23:31:23 53° NW 23:36:57 10° NNE
CENTAUR R/B 4.2 23:31:16 11° SE 23:33:56 15° ESE 23:37:22 10° ENE
Cosmos 1151 Rocket 3.5 23:34:52 35° SSE 23:36:20 52° E 23:40:32 10° NNE
BREEZE-M DEB (TANK) 3.9 23:39:17 27° SE 23:39:17 27° SE 23:42:04 10° ESE
DELTA 2 DEB (DPAF) 3.5 23:34:50 10° NNE 23:38:25 74° ESE 23:39:02 56° SSE
SL-14 R/B 3.1 23:39:49 53° SSW 23:40:39 89° WNW 23:44:27 10° N
CZ-4C R/B 2.9 23:37:50 10° NNE 23:41:14 82° WNW 23:41:47 60° SSW
Cosmos 1244 Rocket 4.4 23:35:33 10° NNW 23:41:41 73° W 23:44:46 31° S
Cosmos 158 Rocket 4.2 23:39:40 31° SW 23:42:13 66° WNW 23:47:32 10° NNE
ACS3 Solar Sail 1.7 23:37:03 10° NNE 23:43:04 77° E 23:46:10 30° S
Cosmos 1953 4.0 23:41:24 10° NNE 23:44:29 25° ENE 23:46:58 13° ESE
Landsat 5 3.7 23:43:15 10° N 23:47:15 54° WNW 23:48:28 38° SW
Cosmos 1500 Rocket 3.5 23:44:43 10° N 23:49:11 87° E 23:50:57 36° SSE
IDEFIX/ARIANE 42P 3.8 23:44:51 10° NNE 23:49:31 32° E 23:52:42 17° SSE
Cosmos 1703 4.1 23:54:48 26° ESE 23:55:38 30° E 23:58:30 10° NNE
